Location: Unspecified
(0.0000°N, 0.0000°E)
Time: 05:03:18
(UTC+00:00)

ISS - Pass Details

Date: 22 May 2019
Orbit: 407 x 410 km, 51.6° (Epoch: 23 May)

Event Time Altitude Azimuth Distance (km) Brightness Sun altitude
Exits shadow 04:09:20 18° 11° (N) 1,092 -1.3 -25.0°
Maximum altitude 04:10:57 26° 54° (NE) 842 -1.6 -24.7°
Drops below altitude 10° 04:13:46 10° 113° (ESE) 1,467 -0.5 -24.0°
Sets 04:16:04 0° 126° (SE) 2,330 0.4 -23.5°
